{"data":{"norad_id":57920,"epoch":"2026-05-24T13:53:36.146112Z","epoch_age_seconds":108273,"freshness":"FRESH","line1":"1 57920U 23147H   26144.57889058 -.00002050  00000+0 -65055-4 0  9990","line2":"2 57920  43.0033 256.6856 0001754 266.6694  93.3957 15.27551400148236","mean_motion":15.275514,"eccentricity":0.0001754,"inclination_deg":43.0033,"raan_deg":256.6856,"arg_perigee_deg":266.6694,"mean_anomaly_deg":93.3957,"bstar":-6.5055e-5,"rev_number":14823,"period_min":94.268513648706,"perigee_km":481.9312690021,"apogee_km":484.33820312711,"semimajor_km":6861.2717360646,"source":"CELESTRAK","updated_at":"2026-05-25T13:38:18.457626Z"}}